STARLINK-3746

operational
NORAD ID: 52268 Int'l Des: 2022-041 Owner: SPXS Country: US Constellation: starlink
LEOCIRCULAR

Über STARLINK-3746

Beschreibung wird geladen...

Live-Position

3D-Globus wird geladen...

Nächste Überflüge

Höhenverlauf

Altitude vs Time

uPlot chart will show altitude changes over time

Zweizeiliger Elementsatz

1 52268U 22041H 25251.58485125 -.00000860 00000-0 -35972-4 0 9991
2 52268 53.2183 206.5460 0001424 92.0988 268.0168 15.08836971186876
Epoch: 8. Sept. 2025 • Age: 18 hours

Aktueller Status

Höhe 539.6 km
Geschwindigkeit 7.60 km/s
Subsatellitenpunkt 18.30°N, 102.97°W
Startdatum 21. Apr. 2022
Alter 3.3 years
Typ internet

Technische Details

Klassifizierung Payload
Masse 297.00 kg
Trockenmasse 275.00 kg
Gesamtmasse 297.00 kg
Länge 0.20 m
Durchmesser 2.80 m
Spannweite 9.00 m
Form Box + pan
Hersteller SPXS
Bus-Typ Starlink
Phasenstatus In Orbit
Besitzer/Staat SPXS/US

Große Konstellationen

Loading constellations...